Вернуться в каталог

INSAT 3E

АктивенСвязьGEO
NORAD 27951·PAYLOAD·🇮🇳 India

Запущен Sep 27, 2003 с Guiana Space Centre

Loading…

TLE

СвежийSource: Space-Track

Эпоха: Sep 14, 2026, 10:47 UTC

1 27951U 03043E   26257.44971794 -.00000301  00000-0  00000-0 0  9996
2 27951   9.9007  53.0935 0012321 242.8628 306.1838  1.00809705 54702

Отслеживайте INSAT 3E в реальном времени с AllMySat

Download on the App Store